GEESAT-6 05

Last updated on Sat Oct 25 2025 00:02:05 GMT+0000 (Coordinated Universal Time)

1 65717U 25214F 25297.64796310 .00003554 00000+0 42142-3 0 9993 2 65717 49.9817 321.0070 0014456 47.0263 313.1886 14.86631545 4525
UTC large
Height (km)
Speed (km/s)
/
Latitude / Longitude
Inclination (degrees)
Orbital Period (minutes)
Azimuth
Elevation
Range (km)
Doppler Factor

Next 0 passes for location: London (51.5072 / 0.1276)

Sorry there are no passes over London.
GEESAT-6 05